铱星星座 911星 (IRIDIUM 911)

导读

IRIDIUM 911是美国于1997年6月18日发射的铱星系统卫星,运行在约780公里的近地轨道,属于全球低轨通信星座的组成部分。它依托星间链路实现全球覆盖,为航空、航海、应急救援等领域提供语音通信与数据传输服务,支持极地等偏远区域通信,是早期全球卫星通信网络的关键节点,设计寿命已超期但长期支撑铱星系统的无缝通信服务。

Basic Information
目录编号:
24842
目录名称:
IRIDIUM 911
国际标识:
1997-030G
轨道中心:
EARTH
卫星名称:
铱星星座 911星
卫星全名:
铱星星座 911星 (IRIDIUM 911)
卫星状态:
在轨 (已飞行10681 天)
发射日期:
1997-06-18 UTC
国别 :
美国 (US)
星等 :
--
This satellite is enrolled in the Space Conjunction Data Service (SCDS) and the current flight risk assessment level is: No High Risk
Orbit Information
数据来源 国际轨道数据 AOE轨道数据
星历时间 2026-09-15T22:34:42+0800
7小时前
查看轨道信息
2026-09-13T05:00:00+0800
3天前
查看轨道信息
半长轴 7109.74km 7109.751km
偏心率 0.0014856 0.0015262
轨道倾角 86.450° 86.450°
近地点辐角 26.714° 35.522°
升交点赤经 12.090° 13.242°
平近点角 333.482° 128.438°
近地点 721.04km 720.763km
远地点 742.166km 742.465km
周期 99.435分钟 99.435分钟
每日圈数 14.481788 14.481756
Detailed Information
平衡模式:
三轴稳定
覆盖范围:
全球
运营商:
铱星通信公司
运营商所在国:
美国
使用方式:
暂无
Satellite Introduction
铱星(Iridium)是由共66个运作中的通信卫星组成的卫星通信系统。这个系统原本规划77个通信卫星,所以用原子序数为77的铱元素来命名。铱卫星允许人们使用手持型电子设备进行全球性的语音及数据通讯。该卫星已退役。
2D Orbit Map
3D Orbit Map
Orbit Altitude Analysis Chart
Orbit Inclination Analysis Chart
Orbit Comprehensive Analysis Chart
View Comprehensive Chart
Conjunction Data List
Event ID Objects TCA Miss Dist (km) Collision Risk Probability Collision Risk Index (CRI) Action
CDM_260917-182902-484203-206223
CBERS 2B (32062)
2026-09-17T
18:29:55+0000
1.037 km
极远距离
2.403656E-5 中风险 0.63
CDM_260908-212002-484203-126626
2026-09-08T
21:20:47+0000
2.447 km
极远距离
1.694327E-6 低风险 0.4
CDM_260918-055902-484206-064322
2026-09-18T
05:59:42+0000
2.468 km
极远距离
1.624661E-6 低风险 0.39
Miss Distance Evolution Trend with All Objects Subscribe to Flight Safety Assessment
Collision Probability Evolution Trend with All Objects Subscribe to Flight Safety Assessment